Gadsden, AL

10:40 PM CST on November 16, 2019 (GMT -0600)
Gadsden Municipal

Weather History for KGAD - May, 2019

Change the Weather History Date:

Thursday, May 2, 2019

  Actual Average Record
Temperature  
Mean Temperature 72 °F -  
Max Temperature 86 °F 74 °F 92 °F (1951)
Min Temperature 60 °F 51 °F 42 °F (1997)
Cooling Degree Days 7    
Growing Degree Days 22 (Base 50)    
Moisture  
Dew Point 66 °F    
Average Humidity 72    
Maximum Humidity 100    
Minimum Humidity 47    
Precipitation  
Precipitation 0.00 in - - ()
Sea Level Pressure  
Sea Level Pressure 30.14 in    
Wind  
Wind Speed 1 mph (SSW)    
Max Wind Speed 10 mph    
Max Gust Speed -    
Visibility 5 miles    
Events Fog    
Averages and records for this station are not official NWS values.
T = Trace of Precipitation, MM = Missing Value Source: NWS Daily Summary

Daily Weather History Graph

Daily Weather History Graph

Search for Another Location

Airport or City:

Astronomy

May. 02, 2019 Rise Set
Actual Time 5:54 AM CDT 7:28 PM CDT
Civil Twilight 5:27 AM CDT 7:55 PM CDT
Nautical Twilight 4:55 AM CDT 8:27 PM CDT
Astronomical Twilight 4:22 AM CDT 9:01 PM CDT
Moon 4:56 AM CDT (5/2) 5:24 PM CDT (5/2)
Length of Visible Light 14h 27m
Length of Day
13h 34m
Waning Crescent, 5% of the Moon is Illuminated
May 2
Waning Crescent
May 4
New
May 11
First Quarter
May 18
Full
May 26
Last Quarter

Hourly Weather History & Observations

Time (CDT) Temp. Heat Index Dew Point Humidity Pressure Visibility Wind Dir Wind Speed Gust Speed Precip Events Conditions
12:56 AM 64.9 °F - - N/A% 30.17 in 7.0 mi Calm Calm - N/A   Mostly Cloudy
1:08 AM 64.4 °F - - N/A% 30.17 in 1.5 mi Calm Calm - N/A   Scattered Clouds
1:19 AM 64.4 °F - - N/A% 30.16 in 3.0 mi Calm Calm - N/A   Scattered Clouds
1:56 AM 63.0 °F - - N/A% 30.16 in 9.0 mi Calm Calm - N/A   Clear
2:14 AM 62.6 °F - - N/A% 30.16 in 0.8 mi Calm Calm - N/A   Clear
2:24 AM 62.6 °F - - N/A% 30.16 in 1.2 mi West 4.6 mph - N/A   Clear
2:44 AM 62.6 °F - - N/A% 30.14 in 3.0 mi Calm Calm - N/A   Scattered Clouds
2:56 AM 62.1 °F - - N/A% 30.15 in 8.0 mi Calm Calm - N/A   Partly Cloudy
3:28 AM 60.8 °F - - N/A% 30.16 in 1.5 mi SW 3.5 mph - N/A   Clear
3:32 AM 60.8 °F - - N/A% 30.17 in 0.8 mi SW 3.5 mph - N/A   Clear
3:44 AM 60.8 °F - - N/A% 30.17 in 2.5 mi Calm Calm - N/A   Clear
3:54 AM 60.8 °F - - N/A% 30.16 in 1.2 mi Calm Calm - N/A   Clear
3:56 AM 61.0 °F - - N/A% 30.16 in 1.0 mi Calm Calm - N/A   Clear
4:00 AM 60.8 °F - - N/A% 30.16 in 2.0 mi Calm Calm - N/A   Clear
4:10 AM 62.6 °F - - N/A% 30.16 in 8.0 mi Calm Calm - N/A   Partly Cloudy
4:18 AM 60.8 °F - - N/A% 30.16 in 1.5 mi Calm Calm - N/A   Scattered Clouds
4:26 AM 62.6 °F - - N/A% 30.16 in 1.0 mi Calm Calm - N/A   Partly Cloudy
4:28 AM 62.6 °F - - N/A% 30.16 in 2.0 mi Calm Calm - N/A   Partly Cloudy
4:35 AM 62.6 °F - - N/A% 30.16 in 7.0 mi WSW 4.6 mph - N/A   Partly Cloudy
4:48 AM 60.8 °F - - N/A% 30.16 in 2.0 mi Calm Calm - N/A   Clear
4:56 AM 60.1 °F - - N/A% 30.16 in 8.0 mi Calm Calm - N/A   Clear
5:07 AM 60.8 °F - - N/A% 30.16 in 2.0 mi Calm Calm - N/A   Partly Cloudy
5:13 AM 60.8 °F - - N/A% 30.16 in 1.0 mi Calm Calm - N/A   Mist
5:29 AM 60.8 °F - - N/A% 30.17 in 3.0 mi Calm Calm - N/A   Partly Cloudy
5:56 AM 60.1 °F - - N/A% 30.17 in 10.0 mi Calm Calm - N/A   Partly Cloudy
6:07 AM 60.8 °F - - N/A% 30.17 in 1.8 mi Calm Calm - N/A   Clear
6:17 AM 60.8 °F - - N/A% 30.17 in 2.0 mi Calm Calm - N/A   Scattered Clouds
6:21 AM 60.8 °F - - N/A% 30.16 in 5.0 mi Calm Calm - N/A   Haze
6:37 AM 60.8 °F - - N/A% 30.17 in 1.5 mi Calm Calm - N/A   Overcast
6:53 AM 62.6 °F - - N/A% 30.17 in 6.0 mi Calm Calm - N/A   Haze
6:56 AM 63.0 °F - - N/A% 30.18 in 6.0 mi Calm Calm - N/A   Haze
7:09 AM 62.6 °F - - N/A% 30.18 in 1.5 mi Calm Calm - N/A   Mostly Cloudy
7:11 AM 64.4 °F - - N/A% 30.18 in 0.8 mi Calm Calm - N/A   Mostly Cloudy
7:15 AM 64.4 °F - - N/A% 30.18 in 0.2 mi Calm Calm - N/A Fog Fog
7:32 AM 64.4 °F - - N/A% 30.18 in 0.8 mi Calm Calm - N/A   Overcast
7:35 AM 64.4 °F - - N/A% 30.18 in 1.2 mi Calm Calm - N/A   Overcast
7:56 AM 68.0 °F - - N/A% 30.19 in 6.0 mi Calm Calm - N/A   Haze
8:56 AM 73.0 °F - 70.0 °F 90% 30.18 in 10.0 mi Calm Calm - N/A   Clear
9:56 AM 75.9 °F - 70.0 °F 82% 30.19 in 10.0 mi SSE 5.8 mph - N/A   Clear
10:56 AM 79.0 °F - 70.0 °F 74% 30.19 in 10.0 mi Variable 4.6 mph - N/A   Scattered Clouds
11:56 AM 82.0 °F 86.3 °F 71.1 °F 69% 30.17 in 10.0 mi Variable 5.8 mph - N/A   Scattered Clouds
12:56 PM 82.9 °F 87.0 °F 70.0 °F 65% 30.15 in 10.0 mi Variable 4.6 mph - N/A   Scattered Clouds
1:56 PM 84.9 °F 88.2 °F 68.0 °F 57% 30.12 in 10.0 mi South 9.2 mph - N/A   Scattered Clouds
2:56 PM 84.9 °F 87.1 °F 66.0 °F 53% 30.09 in 10.0 mi South 6.9 mph - N/A   Clear
3:56 PM 84.9 °F 87.1 °F 66.0 °F 53% 30.06 in 10.0 mi South 10.4 mph - N/A   Clear
4:56 PM 84.9 °F 86.1 °F 64.0 °F 49% 30.04 in 10.0 mi South 5.8 mph - N/A   Clear
5:56 PM 84.0 °F 84.5 °F 62.1 °F 47% 30.03 in 10.0 mi SSE 6.9 mph - N/A   Clear
6:56 PM 80.1 °F 81.2 °F 62.1 °F 54% 30.03 in 10.0 mi SSE 3.5 mph - N/A   Clear
7:56 PM 75.9 °F - 62.1 °F 62% 30.05 in 10.0 mi SSE 3.5 mph - N/A   Clear
8:56 PM 66.9 °F - 64.9 °F 93% 30.06 in 10.0 mi Calm Calm - N/A   Clear
9:56 PM 66.0 °F - 66.0 °F 100% 30.06 in 10.0 mi Calm Calm - N/A   Clear
10:56 PM 64.0 °F - 64.0 °F 100% 30.05 in 10.0 mi NW 3.5 mph - N/A   Clear
11:56 PM 63.0 °F - 63.0 °F 100% 30.05 in 10.0 mi Calm Calm - N/A   Clear